Simultaneous Nadir Overpasses (SNOs) Predictions

Prediction of SNOs between METOP-B and TERRA Satellite Orbit:

Table of predicted SNOs for the next 14.0 days since TLE Epoch: 8/28/2016
Index Date (METOP-B) Time (METOP-B) Lat,Lon (METOP-B) SZA (METOP-B ) Date (TERRA) Time (TERRA) Lat,Lon (TERRA) SZA (TERRA ) Distance(km) Time Diff (sec)
1 08/29/2016 19:45:58 -81.27, 110.02 104.97 08/29/2016 19:46:12 -81.27, 110.04 104.97 0.64 14
2 08/29/2016 20:36:37 81.28, -82.12 75.11 08/29/2016 20:35:38 81.27, -82.23 75.06 2.06 59
3 09/01/2016 15:20:22 -81.27, 176.60 103.92 09/01/2016 15:20:24 -81.28, 176.71 103.90 1.93 2
4 09/01/2016 16:11:01 81.28, -15.56 76.16 09/01/2016 16:09:50 81.28, -15.57 76.13 0.20 71
5 09/04/2016 10:04:05 81.27, 75.29 77.08 09/04/2016 10:05:09 81.27, 75.37 77.12 1.29 64
6 09/04/2016 10:54:46 -81.27,-117.22 102.89 09/04/2016 10:54:36 -81.27,-117.06 102.88 2.83 10
7 09/07/2016 05:38:29 81.27, 141.82 78.17 09/07/2016 05:39:21 81.27, 141.89 78.20 1.30 52
8 09/07/2016 06:29:10 -81.27, -50.68 101.80 09/07/2016 06:28:48 -81.27, -50.52 101.80 2.63 22
9 09/10/2016 01:12:53 81.27,-151.66 79.26 09/10/2016 01:13:33 81.28,-151.65 79.29 0.43 40




NCC Satellite Simultaneous Nadir Overpasses (SNOs) Prediction Service
